Sigil TimeFrame

Sigil TimeFrame ⇒ XML

NameTime LeftWindow Opens
Kro Shuk, Doomslayer2d 22:372019-01-13 08:27:00
Ormsul the Putrid1d 11:092019-01-14 19:55:00
Sigil, Lich of Woe1d 02:482019-01-15 04:16:00
King Ashnar, Lord of the Unliving0d 21:092019-01-15 09:55:00
Nayark the Mummified Sorcerer0d 17:462019-01-15 13:18:00
Varsanor, Master of Darkness0d 16:092019-01-15 14:55:00
Lady Chaos, Queen of the Abyss0d 15:302019-01-15 15:34:00
Dreg nor, Keeper of the Infernal Essence0d 14:422019-01-15 16:22:00
Gnorb0d 12:442019-01-15 18:20:00
Anguish0d 09:582019-01-15 21:06:00
Terrance, Rebel of Rallis0d 09:172019-01-15 21:47:00
Melt Bane, The Forbidden Demon Dragon0d 09:092019-01-15 21:55:00
Jorun the Blazing Swordsman0d 07:062019-01-15 23:58:00
Crolvak, the Fire Master0d 05:482019-01-16 01:16:00
Hyrak, Bringer of Nightmares0d 05:372019-01-16 01:27:00
Garland, The Lord Keeper0d 04:112019-01-16 02:53:00
Wanhiroeaz the Devourer0d 03:552019-01-16 03:09:00
Gorganus of the Wood0d 03:482019-01-16 03:16:00
Volgan the Living Ironbark0d 03:022019-01-16 04:02:00
Smoot the Yeti0d 02:192019-01-16 04:45:00
Baron Mu, Dark Rider of the Undead0d 02:012019-01-16 05:03:00
Lord Varan0d 01:562019-01-16 05:08:00
Vitkros, Hydra of the Deep0d 01:432019-01-16 05:21:00
Crane0d 01:222019-01-16 05:42:00
Synge, The Red Dragon0d 00:472019-01-16 06:17:00
Crantos, Defender of Ultimation0d 01:292019-01-16 08:34:00
Ag Nabak the Abomination0d 06:552019-01-16 14:00:00
Freezebreed, The Frozen Manipulator0d 07:562019-01-16 15:01:00
Murderface0d 08:302019-01-16 15:35:00
Detox0d 08:342019-01-16 15:39:00
Ebliss, Fallen Angel of Despair0d 09:162019-01-16 16:21:00
Tsort0d 09:422019-01-16 16:47:00
Akkel the Enflamed Warrior0d 12:482019-01-16 19:53:00
Lord Sibannac0d 13:442019-01-16 20:49:00
Bloodchill the Grizzly0d 14:012019-01-16 21:06:00
Zikkir the Dark Archer0d 16:342019-01-16 23:39:00
Tylos, The Lord Master0d 16:472019-01-16 23:52:00
Sylvanna TorLai0d 17:422019-01-17 00:47:00
Grivvek, Protector of the Brood0d 18:322019-01-17 01:37:00
Lord Narada0d 19:192019-01-17 02:24:00
Numerocure, The Black Messenger of Evil0d 20:132019-01-17 03:18:00
Bolkor, the Holy Master0d 21:002019-01-17 04:05:00
Lady Ariella0d 21:422019-01-17 04:47:00
Hackerphage, Protector of the Gateway0d 21:432019-01-17 04:48:00
Sarcrina the Astral Priestess1d 00:052019-01-17 07:10:00
Brutalitar, Lord of the Underworld1d 00:142019-01-17 07:19:00
Nafir, God of Desolation1d 01:092019-01-17 08:14:00
Nessam1d 01:342019-01-17 08:39:00
Rotborn, Eater of the Dead1d 02:082019-01-17 09:13:00
Rancid, Lord of Thugs1d 03:142019-01-17 10:19:00
Threk, King of Lords1d 03:332019-01-17 10:38:00
Mistress of the Sword1d 03:372019-01-17 10:42:00
Ancient Magus Tarkin1d 04:572019-01-17 12:02:00
Howldroid, Tormentor of the Pit1d 06:162019-01-17 13:21:00
Windstrike The Vile1d 06:412019-01-17 13:46:00
Traxodon the Plaguebringer1d 07:402019-01-17 14:45:00
Samatha Dark-Soul1d 07:512019-01-17 14:56:00
Shadow1d 07:522019-01-17 14:57:00
Pinosis1d 08:152019-01-17 15:20:00
Skarthul the Avenged1d 08:472019-01-17 15:52:00
Anvilfist1d 10:012019-01-17 17:06:00
Great Lord Ganeshan1d 11:442019-01-17 18:49:00
Lord Suka1d 17:072019-01-18 00:12:00
Dlanod, the Crazed Chancellor1d 17:142019-01-18 00:19:00
Lord Xordam1d 18:352019-01-18 01:40:00
Balerion, Dragon of Dread1d 21:092019-01-18 04:14:00
Ganja the Stone Golem1d 23:412019-01-18 06:46:00
Old World Drake2d 00:002019-01-18 07:05:00
Kretok, Descendant of Nature2d 00:042019-01-18 07:09:00
Animated Captain2d 00:062019-01-18 07:11:00
The Emerald Assassin2d 04:132019-01-18 11:18:00
Jazzmin, Maiden of Vitality2d 04:222019-01-18 11:27:00
Archdevil Yirkon2d 07:422019-01-18 14:47:00
Skybrine The Inescapable2d 08:032019-01-18 15:08:00
Straya, the Underworld Ruler2d 11:332019-01-18 18:38:00
Amalgamated Apparition2d 13:162019-01-18 20:21:00
Zertan, The Collector2d 13:472019-01-18 20:52:00
Keeper of Nature2d 14:032019-01-18 21:08:00
Xynak, the Arcane Master3d 05:112019-01-19 12:16:00
Raiyar, the Shadow Master3d 07:042019-01-19 14:09:00
Emperor Neudeus, Controller of the Universe3d 08:082019-01-19 15:13:00
Quiver, The Renegade3d 09:022019-01-19 16:07:00
Nar Zhul, Slayer of All3d 13:192019-01-19 20:24:00
Slashbrood, Devourer of the Blackness3d 23:132019-01-20 06:18:00
Esquin, the Kinetic Master4d 00:072019-01-20 07:12:00
Karvaz, Lord of Alsayic4d 00:292019-01-20 07:34:00
Lacuste of the Swarm4d 15:472019-01-20 22:52:00
Viserion, the Necrodragon4d 20:362019-01-21 03:41:00
Felroc, Overseer of Hellfire4d 21:212019-01-21 04:26:00
Q-SEC Commander5d 02:592019-01-21 10:04:00
Shaik, Servant of Arkron193d 02:392018-07-07 04:25:00
Rook, Hand of Arkron191d 04:292018-07-09 02:35:00
Jade Dragonite40d 02:052018-12-07 04:59:00
Noxious Slug6d 17:262019-01-09 13:38:00
Beast of Cards6d 00:332019-01-10 06:31:00
95 Gods, Last update: 2019-01-16 10:50:02